Location: Killam
(52.7910°N, 111.8608°W)
Time: 14:34:31
(UTC+00:00)

BlueWalker 3 - Pass Details

Date: 27 January 2026
Orbit: 451 x 461 km, 53.2° (Epoch: 16 February)

Event Time Altitude Azimuth Distance (km) Brightness Sun altitude
Rises 03:02:01 0° 267° (W) 2,457 6.7 -26.9°
Reaches altitude 10° 03:04:09 10° 268° (W) 1,585 5.4 -27.3°
Enters shadow 03:05:54 27° 271° (W) 904 3.8 -27.5°
